GFSNIL_prec_precacc_087.txt.gz
Total_Precipitation_Accumulation
0.08 0.06 0.07 0.15 0.19 0.14 0.14 0.15 0.40 0.59 0.55 0.50 0.55 0.61 0.60 0.66 0.50 0.42 0.40 0.39 0.36 0.29
0.04 0.05 0.07 0.10 0.09 0.08 0.09 0.12 0.19 0.24 0.56 0.68 0.59 0.47 0.43 0.43 0.36 0.26 0.22 0.23 0.28 0.28
0.08 0.10 0.12 0.11 0.17 0.18 0.18 0.18 0.15 0.16 0.14 0.28 0.37 0.34 0.27 0.22 0.23 0.24 0.17 0.13 0.16 0.19
0.14 0.27 0.35 0.25 0.30 0.29 0.29 0.28 0.27 0.22 0.17 0.12 0.15 0.16 0.13 0.12 0.15 0.16 0.16 0.21 0.28 0.31
0.62 0.55 0.69 0.64 0.63 0.59 0.38 0.30 0.27 0.30 0.26 0.22 0.17 0.19 0.17 0.16 0.17 0.19 0.22 0.28 0.36 0.33
0.67 0.69 0.60 0.59 0.49 0.37 0.25 0.23 0.18 0.17 0.21 0.24 0.21 0.22 0.20 0.18 0.19 0.27 0.37 0.38 0.34 0.27
0.50 0.46 0.43 0.31 0.26 0.19 0.11 0.13 0.08 0.08 0.13 0.16 0.16 0.14 0.16 0.25 0.42 0.41 0.30 0.27 0.26 0.24
0.44 0.41 0.30 0.20 0.22 0.20 0.14 0.18 0.18 0.15 0.15 0.10 0.10 0.16 0.29 0.34 0.26 0.22 0.25 0.27 0.28 0.27
0.20 0.26 0.20 0.15 0.14 0.19 0.22 0.26 0.31 0.30 0.30 0.28 0.36 0.45 0.29 0.20 0.16 0.17 0.16 0.13 0.10 0.14
0.19 0.18 0.13 0.15 0.16 0.19 0.27 0.29 0.29 0.31 0.43 0.60 0.55 0.52 0.27 0.21 0.13 0.13 0.15 0.12 0.11 0.12
0.17 0.17 0.14 0.13 0.15 0.21 0.34 0.32 0.40 0.45 0.49 0.40 0.46 0.55 0.34 0.31 0.15 0.15 0.20 0.23 0.29 0.29
0.20 0.21 0.25 0.21 0.21 0.24 0.33 0.36 0.31 0.27 0.26 0.27 0.34 0.53 0.27 0.26 0.10 0.17 0.27 0.32 0.41 0.43
0.36 0.35 0.35 0.43 0.40 0.33 0.24 0.20 0.19 0.17 0.13 0.26 0.17 0.45 0.27 0.20 0.07 0.20 0.47 0.52 0.59 1.08
0.35 0.43 0.46 0.35 0.23 0.19 0.21 0.20 0.16 0.15 0.16 0.19 0.27 0.33 0.39 0.26 0.13 0.20 0.53 0.65 0.65 0.75

GFSNIL_prec_precacc_090.txt.gz
Total_Precipitation_Accumulation
0.08 0.06 0.07 0.15 0.20 0.14 0.14 0.15 0.40 0.59 0.55 0.52 0.66 0.81 0.83 0.98 0.81 0.62 0.55 0.51 0.41 0.30
0.04 0.05 0.07 0.10 0.09 0.08 0.09 0.12 0.20 0.24 0.56 0.68 0.62 0.57 0.63 0.70 0.76 0.52 0.38 0.37 0.37 0.31
0.08 0.11 0.12 0.12 0.18 0.18 0.18 0.19 0.15 0.16 0.14 0.28 0.37 0.40 0.38 0.41 0.53 0.51 0.35 0.26 0.27 0.23
0.15 0.28 0.35 0.25 0.31 0.29 0.30 0.29 0.27 0.22 0.17 0.12 0.15 0.18 0.18 0.19 0.34 0.41 0.36 0.35 0.38 0.34
0.63 0.56 0.69 0.64 0.63 0.59 0.39 0.30 0.28 0.30 0.26 0.23 0.17 0.19 0.18 0.17 0.21 0.31 0.32 0.36 0.43 0.36
0.68 0.70 0.60 0.59 0.49 0.37 0.25 0.23 0.19 0.18 0.21 0.24 0.21 0.22 0.21 0.18 0.19 0.29 0.41 0.41 0.36 0.28
0.50 0.47 0.43 0.31 0.27 0.20 0.12 0.13 0.08 0.09 0.14 0.16 0.16 0.14 0.16 0.25 0.42 0.41 0.31 0.28 0.27 0.25
0.45 0.42 0.31 0.21 0.22 0.20 0.14 0.18 0.18 0.15 0.16 0.11 0.11 0.17 0.31 0.35 0.27 0.22 0.26 0.27 0.28 0.28
0.21 0.28 0.21 0.16 0.15 0.20 0.23 0.27 0.32 0.31 0.31 0.29 0.37 0.47 0.31 0.22 0.17 0.18 0.17 0.14 0.13 0.18
0.19 0.19 0.14 0.16 0.17 0.20 0.27 0.30 0.30 0.33 0.44 0.61 0.58 0.54 0.29 0.24 0.14 0.15 0.19 0.16 0.14 0.14
0.19 0.18 0.15 0.15 0.16 0.22 0.34 0.33 0.41 0.45 0.49 0.41 0.48 0.57 0.36 0.32 0.16 0.16 0.21 0.25 0.30 0.30
0.22 0.25 0.29 0.24 0.23 0.26 0.35 0.38 0.34 0.28 0.27 0.28 0.36 0.57 0.30 0.29 0.11 0.18 0.29 0.34 0.44 0.46
0.48 0.44 0.43 0.53 0.52 0.41 0.29 0.25 0.23 0.20 0.17 0.30 0.19 0.48 0.29 0.22 0.09 0.23 0.50 0.54 0.63 1.13
0.56 0.61 0.59 0.48 0.36 0.32 0.31 0.28 0.22 0.19 0.20 0.21 0.29 0.34 0.39 0.26 0.13 0.20 0.53 0.65 0.65 0.76

GFSNIL_prec_precacc_096.txt.gz
Total_Precipitation_Accumulation
0.15 0.07 0.07 0.15 0.20 0.14 0.14 0.15 0.40 0.59 0.55 0.52 0.67 0.86 1.03 1.26 1.14 0.82 0.69 0.68 0.52 0.37
0.08 0.06 0.07 0.10 0.09 0.08 0.09 0.12 0.20 0.24 0.56 0.68 0.63 0.62 0.83 1.06 1.17 1.01 0.69 0.62 0.56 0.41
0.16 0.14 0.12 0.12 0.18 0.18 0.18 0.19 0.15 0.16 0.14 0.28 0.38 0.41 0.47 0.63 0.96 1.07 0.78 0.59 0.58 0.49
0.24 0.32 0.39 0.27 0.31 0.30 0.30 0.29 0.27 0.22 0.17 0.12 0.16 0.18 0.21 0.28 0.62 0.94 0.96 0.73 0.75 0.65
0.72 0.62 0.75 0.73 0.70 0.61 0.39 0.30 0.28 0.30 0.26 0.23 0.17 0.19 0.19 0.19 0.39 0.64 0.91 0.93 0.90 0.78
0.81 0.80 0.73 0.69 0.53 0.39 0.26 0.24 0.20 0.18 0.21 0.24 0.21 0.22 0.23 0.20 0.28 0.59 0.82 0.93 0.87 0.71
0.61 0.54 0.51 0.36 0.29 0.21 0.14 0.15 0.10 0.10 0.14 0.16 0.17 0.15 0.17 0.27 0.48 0.50 0.54 0.66 0.75 0.67
0.54 0.47 0.36 0.24 0.25 0.22 0.15 0.19 0.19 0.17 0.17 0.12 0.12 0.19 0.33 0.36 0.29 0.28 0.32 0.41 0.52 0.52
0.32 0.35 0.26 0.19 0.18 0.22 0.24 0.28 0.34 0.34 0.33 0.31 0.39 0.51 0.33 0.24 0.19 0.20 0.19 0.16 0.14 0.22
0.30 0.29 0.22 0.23 0.24 0.24 0.29 0.32 0.33 0.36 0.47 0.64 0.60 0.59 0.33 0.28 0.16 0.17 0.20 0.17 0.15 0.16
0.32 0.27 0.30 0.35 0.32 0.32 0.40 0.37 0.44 0.49 0.54 0.44 0.51 0.62 0.42 0.39 0.19 0.19 0.24 0.28 0.32 0.33
0.44 0.42 0.46 0.44 0.37 0.33 0.41 0.43 0.37 0.32 0.31 0.31 0.40 0.62 0.37 0.34 0.12 0.20 0.32 0.36 0.48 0.51
0.75 0.76 0.70 0.71 0.64 0.50 0.35 0.32 0.29 0.26 0.22 0.39 0.24 0.58 0.39 0.30 0.13 0.28 0.56 0.61 0.73 1.29
0.99 0.99 0.98 0.89 0.70 0.54 0.49 0.42 0.34 0.31 0.34 0.39 0.44 0.55 0.63 0.49 0.30 0.36 0.68 0.80 0.80 0.92

GFSNIL_prec_precacc_102.txt.gz
Total_Precipitation_Accumulation
0.24 0.18 0.19 0.24 0.24 0.16 0.14 0.15 0.41 0.59 0.55 0.52 0.68 0.88 1.05 1.29 1.17 0.87 0.74 0.72 0.56 0.38
0.20 0.15 0.17 0.20 0.19 0.17 0.16 0.18 0.23 0.24 0.56 0.68 0.63 0.63 0.85 1.09 1.20 1.09 0.81 0.71 0.66 0.52
0.34 0.32 0.30 0.27 0.29 0.31 0.30 0.27 0.17 0.16 0.14 0.28 0.38 0.41 0.48 0.64 0.97 1.13 0.92 0.75 0.72 0.61
0.51 0.62 0.65 0.46 0.49 0.45 0.42 0.38 0.31 0.23 0.17 0.12 0.16 0.19 0.22 0.28 0.62 0.99 1.16 1.11 1.24 1.02
1.34 0.99 1.03 0.91 0.86 0.78 0.54 0.37 0.30 0.30 0.26 0.23 0.17 0.19 0.19 0.20 0.40 0.68 1.09 1.27 1.25 1.17
1.30 1.55 1.14 0.95 0.69 0.52 0.39 0.28 0.20 0.18 0.21 0.24 0.21 0.23 0.23 0.20 0.29 0.61 0.91 1.17 1.25 1.10
0.74 0.89 1.14 0.77 0.61 0.36 0.18 0.17 0.10 0.11 0.14 0.16 0.17 0.15 0.18 0.29 0.51 0.53 0.59 0.80 1.06 1.24
0.63 0.64 0.85 0.72 0.67 0.44 0.19 0.21 0.20 0.18 0.17 0.12 0.13 0.20 0.34 0.37 0.31 0.31 0.34 0.45 0.65 0.90
0.47 0.48 0.43 0.46 0.41 0.33 0.27 0.31 0.36 0.34 0.34 0.32 0.40 0.53 0.36 0.26 0.20 0.22 0.22 0.20 0.19 0.45
0.62 0.58 0.45 0.40 0.35 0.29 0.32 0.36 0.37 0.37 0.47 0.65 0.61 0.61 0.36 0.31 0.16 0.20 0.25 0.26 0.21 0.19
0.66 0.63 0.55 0.61 0.47 0.39 0.46 0.39 0.48 0.51 0.55 0.45 0.52 0.64 0.45 0.42 0.21 0.22 0.29 0.34 0.39 0.36
1.27 1.09 0.89 0.73 0.71 0.62 0.63 0.56 0.42 0.33 0.32 0.32 0.41 0.65 0.40 0.37 0.14 0.24 0.36 0.40 0.54 0.57
1.46 1.63 1.79 1.48 1.09 0.88 0.71 0.64 0.57 0.48 0.34 0.47 0.28 0.65 0.46 0.35 0.14 0.31 0.60 0.63 0.78 1.38
1.22 1.30 1.43 1.52 1.39 1.09 0.90 0.78 0.71 0.70 0.69 0.71 0.72 0.74 0.75 0.60 0.35 0.41 0.74 0.85 0.84 0.99

GFSNIL_prec_precacc_105.txt.gz
Total_Precipitation_Accumulation
0.25 0.19 0.19 0.24 0.24 0.16 0.14 0.15 0.43 0.65 0.60 0.54 0.72 0.90 1.05 1.29 1.18 0.88 0.75 0.73 0.58 0.40
0.22 0.18 0.18 0.22 0.20 0.18 0.18 0.21 0.33 0.38 0.65 0.73 0.67 0.63 0.86 1.09 1.21 1.10 0.82 0.73 0.68 0.53
0.39 0.39 0.36 0.31 0.31 0.34 0.35 0.34 0.32 0.28 0.22 0.34 0.41 0.41 0.48 0.65 0.99 1.14 0.93 0.76 0.73 0.62
0.59 0.74 0.77 0.57 0.58 0.56 0.50 0.46 0.41 0.35 0.30 0.20 0.19 0.19 0.22 0.29 0.63 1.00 1.17 1.14 1.26 1.05
1.58 1.16 1.12 0.98 0.93 0.85 0.60 0.43 0.38 0.37 0.32 0.25 0.18 0.19 0.19 0.20 0.40 0.68 1.09 1.27 1.25 1.18
1.57 1.77 1.28 1.07 0.80 0.62 0.48 0.35 0.25 0.24 0.23 0.24 0.22 0.23 0.23 0.20 0.29 0.61 0.91 1.17 1.26 1.11
0.83 0.96 1.21 0.85 0.69 0.48 0.31 0.26 0.16 0.14 0.16 0.17 0.17 0.15 0.18 0.29 0.51 0.53 0.59 0.80 1.06 1.24
0.67 0.67 0.87 0.80 0.83 0.72 0.49 0.52 0.29 0.22 0.20 0.13 0.13 0.20 0.34 0.37 0.31 0.31 0.34 0.45 0.65 0.90
0.51 0.51 0.44 0.67 0.77 1.07 0.76 0.78 0.61 0.39 0.38 0.34 0.40 0.53 0.36 0.27 0.21 0.23 0.23 0.21 0.19 0.45
0.67 0.68 0.50 0.49 0.69 0.82 0.88 0.72 0.65 0.46 0.52 0.66 0.62 0.62 0.38 0.33 0.17 0.20 0.25 0.26 0.21 0.20
0.71 0.75 0.81 0.91 0.68 0.56 0.65 0.56 0.60 0.58 0.59 0.46 0.53 0.66 0.48 0.47 0.22 0.22 0.29 0.34 0.39 0.37
1.33 1.19 1.03 1.10 1.35 0.95 0.83 0.71 0.49 0.38 0.33 0.33 0.42 0.67 0.43 0.41 0.15 0.24 0.36 0.40 0.54 0.57
1.59 1.80 2.09 1.79 1.56 1.61 1.16 0.76 0.67 0.52 0.38 0.51 0.29 0.69 0.50 0.40 0.16 0.33 0.60 0.63 0.78 1.39
1.25 1.41 1.65 1.87 1.83 1.58 1.39 1.07 0.82 0.75 0.76 0.78 0.81 0.88 0.91 0.72 0.43 0.51 0.80 0.87 0.85 1.00

GFSNIL_prec_precacc_108.txt.gz
Total_Precipitation_Accumulation
0.25 0.19 0.20 0.25 0.25 0.16 0.15 0.15 0.43 0.68 0.62 0.57 0.80 1.03 1.11 1.29 1.18 0.88 0.75 0.73 0.58 0.41
0.24 0.19 0.20 0.23 0.21 0.19 0.18 0.21 0.35 0.44 0.74 0.81 0.80 0.75 0.89 1.09 1.21 1.10 0.83 0.74 0.68 0.54
0.44 0.42 0.38 0.33 0.33 0.36 0.36 0.35 0.33 0.34 0.35 0.52 0.62 0.55 0.53 0.66 0.99 1.14 0.94 0.77 0.74 0.62
0.70 0.95 0.90 0.62 0.63 0.60 0.52 0.48 0.43 0.40 0.38 0.27 0.29 0.28 0.27 0.30 0.63 1.02 1.19 1.14 1.27 1.05
1.68 1.36 1.32 1.08 1.00 0.92 0.64 0.47 0.43 0.43 0.39 0.33 0.27 0.24 0.21 0.20 0.40 0.68 1.09 1.28 1.26 1.19
1.64 1.94 1.44 1.20 0.97 0.75 0.59 0.48 0.36 0.33 0.33 0.34 0.31 0.29 0.25 0.21 0.29 0.61 0.91 1.18 1.27 1.12
0.94 1.25 1.47 0.94 0.81 0.67 0.54 0.49 0.37 0.31 0.25 0.28 0.27 0.18 0.18 0.29 0.51 0.53 0.60 0.80 1.06 1.24
0.75 0.80 1.24 0.95 0.87 0.75 0.61 0.72 0.47 0.39 0.32 0.19 0.15 0.21 0.34 0.37 0.31 0.31 0.34 0.45 0.65 0.90
0.63 0.60 0.54 0.77 0.81 1.13 0.84 0.85 0.90 0.55 0.43 0.36 0.41 0.54 0.36 0.28 0.21 0.23 0.23 0.21 0.19 0.45
0.90 0.92 0.64 0.54 0.74 1.01 1.30 1.16 1.05 1.03 0.78 0.73 0.63 0.63 0.39 0.35 0.17 0.21 0.25 0.26 0.21 0.20
0.72 0.78 0.90 1.04 0.84 0.79 1.05 1.13 1.18 1.09 1.07 0.75 0.64 0.71 0.51 0.49 0.23 0.23 0.29 0.34 0.39 0.37
1.33 1.23 1.07 1.23 1.70 1.28 1.14 1.02 0.76 0.68 0.55 0.55 0.61 0.79 0.48 0.44 0.16 0.26 0.37 0.40 0.54 0.57
1.62 1.84 2.15 1.88 1.72 1.88 1.56 1.20 0.94 0.73 0.52 0.60 0.36 0.77 0.57 0.44 0.17 0.34 0.60 0.63 0.78 1.40
1.27 1.45 1.75 1.98 2.04 1.84 1.82 1.56 1.22 1.10 0.96 0.90 0.91 0.94 0.96 0.76 0.46 0.55 0.85 0.91 0.86 1.01

GFSNIL_prec_precacc_111.txt.gz
Total_Precipitation_Accumulation
0.25 0.19 0.20 0.25 0.25 0.18 0.17 0.16 0.45 0.70 0.65 0.59 0.81 1.04 1.11 1.30 1.19 0.93 0.77 0.74 0.58 0.41
0.24 0.19 0.20 0.23 0.21 0.19 0.21 0.25 0.37 0.45 0.77 0.83 0.82 0.79 0.91 1.10 1.22 1.11 0.88 0.78 0.71 0.54
0.46 0.44 0.39 0.33 0.35 0.37 0.37 0.38 0.35 0.35 0.37 0.55 0.65 0.64 0.55 0.67 1.00 1.16 0.95 0.78 0.76 0.63
0.74 1.06 1.07 0.78 0.75 0.68 0.59 0.55 0.48 0.41 0.40 0.30 0.31 0.35 0.30 0.33 0.64 1.02 1.19 1.15 1.28 1.07
1.70 1.43 1.53 1.43 1.30 1.19 0.81 0.65 0.59 0.50 0.47 0.39 0.32 0.27 0.24 0.24 0.44 0.69 1.10 1.30 1.27 1.20
1.66 1.99 1.52 1.44 1.51 1.10 0.80 0.62 0.51 0.44 0.40 0.40 0.39 0.34 0.28 0.23 0.31 0.63 0.94 1.19 1.28 1.13
1.09 1.37 1.59 1.06 0.95 0.90 0.64 0.56 0.47 0.42 0.37 0.41 0.42 0.35 0.33 0.32 0.53 0.54 0.61 0.82 1.08 1.25
0.95 1.00 1.44 1.16 0.94 0.80 0.70 0.81 0.57 0.50 0.42 0.31 0.28 0.38 0.52 0.47 0.35 0.34 0.37 0.46 0.66 0.90
0.92 0.88 0.71 1.05 1.04 1.17 0.86 0.90 1.03 0.70 0.54 0.49 0.51 0.69 0.50 0.36 0.26 0.26 0.25 0.21 0.19 0.45
1.11 1.16 0.92 0.76 1.00 1.21 1.39 1.23 1.11 1.23 1.11 0.88 0.82 0.86 0.47 0.39 0.19 0.22 0.28 0.27 0.21 0.20
0.79 0.91 1.00 1.25 1.03 0.92 1.21 1.36 1.44 1.26 1.41 1.40 0.99 0.97 0.69 0.54 0.24 0.24 0.30 0.35 0.39 0.37
1.37 1.25 1.08 1.25 1.78 1.44 1.31 1.28 1.16 1.15 0.88 0.99 1.24 1.36 0.97 0.73 0.27 0.30 0.39 0.41 0.55 0.58
1.64 1.86 2.18 1.92 1.79 2.08 1.80 1.53 1.31 1.08 0.94 0.99 0.74 1.15 1.01 0.84 0.49 0.54 0.69 0.67 0.81 1.41
1.28 1.48 1.79 2.01 2.09 1.93 1.98 1.80 1.61 1.46 1.30 1.21 1.20 1.20 1.20 0.99 0.70 0.73 0.97 0.97 0.89 1.03

GFSNIL_prec_precacc_114.txt.gz
Total_Precipitation_Accumulation
0.25 0.19 0.20 0.25 0.25 0.18 0.17 0.17 0.48 0.79 0.77 0.66 0.82 1.06 1.16 1.34 1.20 0.96 0.88 0.82 0.64 0.44
0.24 0.19 0.20 0.23 0.21 0.19 0.21 0.26 0.42 0.51 0.79 0.86 0.84 0.80 0.94 1.13 1.29 1.16 0.98 0.98 0.91 0.67
0.46 0.44 0.39 0.34 0.35 0.37 0.37 0.40 0.41 0.43 0.42 0.57 0.67 0.66 0.61 0.74 1.08 1.27 1.03 0.94 1.17 1.03
0.74 1.07 1.08 0.80 0.77 0.71 0.61 0.58 0.54 0.50 0.51 0.38 0.35 0.38 0.32 0.38 0.70 1.16 1.31 1.19 1.34 1.48
1.71 1.44 1.54 1.44 1.32 1.26 0.88 0.76 0.71 0.63 0.59 0.52 0.50 0.35 0.27 0.28 0.49 0.77 1.22 1.33 1.29 1.30
1.71 2.01 1.54 1.46 1.54 1.30 1.02 0.82 0.78 0.72 0.68 0.53 0.49 0.41 0.32 0.26 0.33 0.65 0.97 1.23 1.38 1.18
1.15 1.47 1.72 1.20 1.10 1.12 1.10 0.97 0.82 0.74 0.80 0.85 0.63 0.39 0.39 0.39 0.58 0.58 0.66 0.91 1.17 1.29
1.08 1.19 1.61 1.32 1.22 1.12 1.06 1.31 0.99 0.75 0.60 0.50 0.53 0.48 0.60 0.58 0.47 0.46 0.46 0.50 0.68 0.91
0.94 0.94 0.89 1.23 1.19 1.35 0.97 0.98 1.13 0.86 0.67 0.59 0.62 0.82 0.63 0.55 0.42 0.41 0.35 0.26 0.21 0.46
1.15 1.21 1.05 0.85 1.09 1.35 1.55 1.32 1.14 1.28 1.19 0.98 0.94 1.10 0.81 0.62 0.31 0.32 0.37 0.33 0.24 0.21
0.85 0.97 1.05 1.34 1.19 1.09 1.43 1.53 1.55 1.30 1.44 1.48 1.15 1.24 1.00 0.80 0.37 0.37 0.39 0.45 0.48 0.41
1.45 1.30 1.10 1.28 1.82 1.56 1.46 1.47 1.39 1.36 1.06 1.16 1.51 1.75 1.36 1.21 0.52 0.46 0.52 0.53 0.65 0.67
1.70 1.89 2.23 1.97 1.84 2.16 1.88 1.66 1.47 1.32 1.31 1.42 1.11 1.65 1.55 1.41 1.05 0.98 1.08 0.92 0.97 1.58
1.31 1.52 1.85 2.05 2.13 1.97 2.04 1.88 1.75 1.67 1.59 1.57 1.68 1.75 1.72 1.42 1.10 1.19 1.46 1.46 1.31 1.37

GFSNIL_prec_precacc_117.txt.gz
Total_Precipitation_Accumulation
0.25 0.19 0.20 0.25 0.25 0.18 0.17 0.17 0.48 0.79 0.78 0.73 1.04 1.25 1.38 1.53 1.29 0.98 0.89 0.84 0.67 0.45
0.24 0.19 0.20 0.23 0.21 0.19 0.21 0.26 0.42 0.51 0.80 0.90 0.96 0.95 1.05 1.24 1.35 1.26 1.02 1.03 0.97 0.71
0.46 0.44 0.39 0.34 0.35 0.37 0.37 0.40 0.41 0.43 0.42 0.58 0.71 0.69 0.68 0.80 1.15 1.38 1.09 1.01 1.27 1.13
0.74 1.07 1.08 0.80 0.77 0.72 0.61 0.58 0.55 0.50 0.51 0.38 0.38 0.45 0.40 0.43 0.76 1.22 1.43 1.29 1.46 1.62
1.71 1.44 1.54 1.45 1.33 1.28 0.91 0.78 0.74 0.65 0.61 0.53 0.53 0.50 0.41 0.34 0.57 0.90 1.35 1.41 1.34 1.46
1.72 2.03 1.55 1.48 1.56 1.31 1.03 0.83 0.79 0.73 0.70 0.56 0.56 0.51 0.47 0.40 0.45 0.76 1.06 1.27 1.53 1.50
1.16 1.48 1.73 1.23 1.14 1.14 1.14 1.00 0.84 0.75 0.83 0.99 0.90 0.70 0.63 0.56 0.74 0.73 0.85 1.11 1.42 1.53
1.11 1.21 1.63 1.34 1.27 1.18 1.20 1.53 1.24 1.07 0.80 0.70 0.71 0.77 0.88 0.83 0.69 0.72 0.68 0.61 0.77 1.02
1.02 0.98 0.90 1.23 1.21 1.40 1.05 1.21 1.44 1.29 1.06 0.94 0.79 1.32 1.18 0.92 0.76 0.65 0.46 0.33 0.26 0.48
1.24 1.26 1.09 0.89 1.12 1.39 1.62 1.46 1.29 1.54 1.38 1.25 1.18 1.36 1.27 1.21 0.57 0.44 0.55 0.54 0.37 0.28
0.93 1.06 1.10 1.36 1.22 1.18 1.51 1.66 1.75 1.43 1.57 1.56 1.25 1.43 1.23 0.96 0.50 0.51 0.59 0.65 0.67 0.55
1.53 1.37 1.14 1.32 1.86 1.63 1.51 1.54 1.51 1.55 1.20 1.24 1.58 1.85 1.58 1.45 0.73 0.64 0.70 0.75 0.86 0.91
1.76 1.95 2.31 2.03 1.89 2.20 1.92 1.71 1.51 1.36 1.40 1.56 1.30 1.85 1.71 1.61 1.42 1.42 1.51 1.25 1.36 1.95
1.32 1.53 1.88 2.08 2.15 2.01 2.07 1.88 1.76 1.70 1.66 1.69 1.86 2.03 2.06 1.72 1.40 1.59 1.90 1.95 1.75 1.80

GFSNIL_prec_precacc_123.txt.gz
Total_Precipitation_Accumulation
0.25 0.19 0.20 0.25 0.25 0.18 0.17 0.17 0.48 0.79 0.78 0.73 1.04 1.25 1.39 1.56 1.38 1.09 0.97 0.95 0.77 0.49
0.24 0.19 0.20 0.23 0.21 0.19 0.21 0.26 0.42 0.51 0.80 0.90 0.96 0.95 1.05 1.24 1.37 1.32 1.07 1.10 1.10 0.79
0.46 0.44 0.39 0.34 0.35 0.37 0.37 0.40 0.41 0.43 0.42 0.58 0.71 0.69 0.68 0.81 1.18 1.43 1.14 1.07 1.39 1.27
0.74 1.07 1.08 0.80 0.77 0.72 0.62 0.58 0.55 0.50 0.51 0.38 0.38 0.45 0.40 0.43 0.76 1.25 1.49 1.34 1.49 1.65
1.71 1.44 1.55 1.45 1.33 1.28 0.91 0.78 0.74 0.65 0.61 0.53 0.54 0.50 0.41 0.35 0.59 0.92 1.38 1.46 1.41 1.48
1.73 2.03 1.56 1.48 1.56 1.32 1.03 0.83 0.79 0.73 0.70 0.56 0.57 0.52 0.47 0.42 0.47 0.83 1.13 1.35 1.60 1.55
1.17 1.50 1.75 1.24 1.15 1.15 1.15 1.00 0.84 0.75 0.83 0.99 0.91 0.71 0.64 0.61 0.80 0.84 1.02 1.28 1.53 1.67
1.16 1.27 1.70 1.41 1.33 1.23 1.24 1.55 1.25 1.09 0.82 0.71 0.71 0.77 0.90 0.93 0.79 0.85 0.98 0.98 1.07 1.26
1.14 1.16 1.12 1.43 1.37 1.50 1.11 1.28 1.51 1.36 1.09 0.97 0.82 1.38 1.24 1.05 0.97 0.88 0.69 0.58 0.46 0.65
1.45 1.47 1.31 1.08 1.25 1.51 1.77 1.59 1.43 1.73 1.61 1.42 1.46 1.57 1.51 1.47 1.09 0.99 0.96 0.81 0.75 0.51
1.09 1.26 1.31 1.52 1.39 1.39 1.78 1.89 2.00 1.69 1.95 1.80 1.61 2.14 1.71 1.35 0.94 1.02 1.10 1.19 1.05 0.98
1.62 1.48 1.25 1.45 2.00 1.83 1.71 1.74 1.76 1.81 1.44 1.56 2.07 2.18 1.92 1.87 1.00 0.95 0.99 1.04 1.18 1.33
1.76 1.96 2.33 2.07 1.94 2.26 2.00 1.81 1.61 1.47 1.56 1.73 1.63 2.14 1.91 1.90 2.00 1.97 2.07 1.67 1.77 2.38
1.32 1.53 1.88 2.08 2.15 2.01 2.08 1.88 1.77 1.71 1.67 1.70 1.93 2.16 2.19 1.84 1.62 2.03 2.38 2.49 2.40 2.55